Regional Weather Roundup
Issued by NWS

Home | Current Version | Previous Version | Text Only | Print | Product List | Glossary Off
Versions: 1 2 3 4 5 6 7 8 9 10 11 12 13 14 15 16 17 18 19 20 21 22 23 24 25 26 27 28 29 30 31 32 33 34 35 36 37 38 39 40 41 42 43 44 45 46 47 48 49 50

000
ASUS43 KMPX 191101
RWRMN
WEATHER ROUNDUP FOR MINNESOTA
NATIONAL WEATHER SERVICE TWIN CITIES/CHANHASSEN MN
500 AM CST FRI DEC 19 2014


NOTE: "FAIR" INDICATES FEW OR NO CLOUDS BELOW 12,000 FEET WITH NO
SIGNIFICANT WEATHER AND/OR OBSTRUCTIONS TO VISIBILITY. N/A MEANS
CURRENT SKY AND/OR WEATHER CONDITIONS ARE NOT AVAILABLE.

MNZ060>063-068>070-191200-
   Twin Cities Metro

CITY           SKY/WX    TMP DP  RH WIND       PRES   REMARKS
TWIN CITIES    CLOUDY    21  16  81 SE7       30.25F WCI  12
ST PAUL        CLOUDY    22  17  81 SE7       30.27F WCI  13
CRYSTAL        LGT SNOW  22  17  81 SE3       30.24F
BLAINE         LGT SNOW  23  19  86 SE3       30.24F
LAKEVILLE      CLOUDY    21  18  86 SE3       30.24F
EDEN PRAIRIE   CLOUDY    22  17  81 SE5       30.23F WCI  16
SOUTH ST PAUL  CLOUDY    23  18  79 CALM      30.26F
LAKE ELMO      CLOUDY    23  19  86 S3        30.26F
$$
MNZ001>005-007-008-013>017-022>024-027-028-191200-
   Northwest Minnesota

CITY           SKY/WX    TMP DP  RH WIND       PRES   REMARKS
BEMIDJI        LGT SNOW  19  16  89 SE5       30.14S WCI  12
HALLOCK        CLOUDY    21  19  93 S14       30.08F WCI   8
ROSEAU         CLOUDY    21  16  79 S9        30.11F WCI  11
WARROAD        CLOUDY    19  16  86 SE9       30.13F WCI   9
THIEF RVR FALL CLOUDY    21  19  93 S9        30.10F WCI  11
CROOKSTON      MOCLDY    21  19  93 S13       30.11F WCI   9
FOSSTON        LGT SNOW  19  18  93 SE8       30.11F WCI   9
DETROIT LAKES  FLURRIES  21  21 100 SE9       30.12F WCI  11
MOORHEAD       CLOUDY    25  25 100 S13       30.12F FOG     WCI  13
PARK RAPIDS    CLOUDY    19  16  88 SE10      30.13F WCI   7
MAHNOMEN       CLOUDY    21  18  88 S8        30.11F WCI  11
$$
MNZ006-009>011-018-025>026-191200-
   North Central Minnesota

CITY           SKY/WX    TMP DP  RH WIND       PRES   REMARKS
BAUDETTE       CLOUDY    20  16  84 S5        30.14F WCI  13
FLAG ISLAND    CLOUDY    19  16  86 S15       30.13F WCI   5
INTL FALLS     CLOUDY    21  17  84 S3        30.17F
WASKISH        FLURRIES  19  18  93 SE5       30.15S WCI  13
BIG FORK       CLOUDY    19  18  93 S6        30.17F WCI  11
LONGVILLE      CLOUDY    18  16  93 SE6       30.17F WCI   9
GRAND RAPIDS   CLOUDY    18  16  93 SE7       30.17F WCI   8
CRANE LAKE     CLOUDY    21  18  86 CALM      30.21S
ORR            CLOUDY    21  18  86 S6        30.16S WCI  14
COOK           CLOUDY    19  18  93 S6        30.19S WCI  11
WALKER         CLOUDY    18  15  86 SE5       30.15F WCI  11
$$
MNZ012-019>021-037-191200-
   Northeast Minnesota

CITY           SKY/WX    TMP DP  RH WIND       PRES   REMARKS
DULUTH         CLOUDY    20  17  88 W9        30.20S WCI   9
ELY            CLOUDY    21  18  86 S8        30.19S WCI  12
HIBBING        CLOUDY    19  16  88 S7        30.19S WCI  10
EVELETH        CLOUDY    21  19  93 SW10      30.20S WCI  10
DULUTH HARBOR  CLOUDY    25  21  86 CALM      30.27S
TWO HARBORS    CLOUDY    25  19  80 W6        30.21S WCI  18
SILVER BAY     CLOUDY    25  19  80 CALM      30.20F
GRAND MARAIS     N/A     26  18  71 N5        30.26S WCI  20
G MARAIS ARPRT CLOUDY    18  14  86 SE5       30.19S WCI  11
$$
MNZ029>031-032-039>041-046>048-054>057-064-191200-
   West Central Minnesota

CITY           SKY/WX    TMP DP  RH WIND       PRES   REMARKS
FERGUS FALLS   CLOUDY    21  21 100 SE10      30.16F FOG     WCI  10
WHEATON        CLOUDY    21  21 100 SE12      30.14F FOG     WCI   9
MORRIS         MOCLDY    25  21  86 SE10      30.13F FOG     WCI  15
ALEXANDRIA     CLOUDY    21  19  92 SE9       30.15F FOG     WCI  11
ELBOW LAKE     CLOUDY    22  21  97 SE12      30.13F FOG     WCI  10
WADENA         CLOUDY    19  18  93 NW9       30.14F WCI   9
GLENWOOD       CLOUDY    21  21 100 SE12      30.15F FOG     WCI   9
APPLETON       CLOUDY    27  23  86 SE5       30.15F WCI  21
BENSON         CLOUDY    25  21  86 S7        30.16F FOG     WCI  17
ORTONVILLE     CLOUDY    25  21  86 SE8       30.12F FOG     WCI  16
MADISON        PTCLDY    28  28 100 SE6       30.14F FOG     WCI  22
WILLMAR        CLOUDY    25  21  86 SE9       30.19F FOG     WCI  15
$$
MNZ033>034-036-042>043-049>051-058-059-191200-
   Central Minnesota

CITY           SKY/WX    TMP DP  RH WIND       PRES   REMARKS
ST CLOUD       LGT SNOW  22  17  81 SE5       30.21F WCI  16
SAUK CENTRE    CLOUDY    20  19  96 SE6       30.17F FOG     WCI  12
PAYNESVILLE    CLOUDY    19  19 100 E7        30.19F FOG     WCI   9
AITKIN         FLURRIES  21  18  86 SE5       30.18F WCI  15
PINE RIVER     CLOUDY    19  16  86 SE6       30.20F WCI  11
BRAINERD       LGT SNOW  19  16  88 SE6       30.19S FOG     WCI  11
STAPLES        CLOUDY    18  16  93 SE5       30.16F WCI  11
LONG PRAIRIE   CLOUDY    19  19 100 SE6       30.17F FOG     WCI  11
LITTLE FALLS   CLOUDY    21  18  86 SE7       30.20F WCI  13
LITCHFIELD     CLOUDY    21  21 100 SE6       30.20F FOG     WCI  14
BUFFALO        FLURRIES  21  18  86 E3        30.24S
MAPLE LAKE     CLOUDY    22  20  92 SE5       30.22F WCI  16
$$
MNZ037-044-045-052-053-191200-
   East Central Minnesota

CITY           SKY/WX    TMP DP  RH WIND       PRES   REMARKS
PRINCETON      LGT SNOW  21  18  86 CALM      30.22F
MORA           CLOUDY    19  16  86 S5        30.24F WCI  13
CAMBRIDGE      LGT SNOW  23  16  74 CALM      30.22F
RUSH CITY      CLOUDY    21  18  86 SE3       30.25F
MOOSE LAKE     CLOUDY    21  19  93 S6        30.21F WCI  14
HINCKLEY       CLOUDY    23  19  86 CALM      30.24F
CLOQUET        CLOUDY    19  18  93 S7        30.21F WCI  10
MCGREGOR       CLOUDY    21  19  93 S5        30.20F WCI  15
$$
MNZ071>073-080-081-089-090-097-098-191200-
   Southwest Minnesota

CITY           SKY/WX    TMP DP  RH WIND       PRES   REMARKS
MONTEVIDEO     CLOUDY    25  25 100 S8        30.18S WCI  16
GRANITE FALLS  CLOUDY    25  24  93 SE7       30.19S WCI  17
CANBY          CLOUDY    28  27  96 SE7       30.15F FOG     WCI  20
MARSHALL       CLOUDY    28  25  86 S6        30.16S WCI  22
REDWOOD FALLS  CLOUDY    26  23  88 SE9       30.19F WCI  17
OLIVIA         CLOUDY    27  23  86 SE9       30.18S WCI  17
PIPESTONE      CLOUDY    27  27 100 SW3       30.13S FOG
WINDOM         CLOUDY    27  27 100 CALM      30.18S FOG
WORTHINGTON    CLOUDY    27  25  93 S9        30.16F WCI  17
JACKSON        CLOUDY    28  27  93 S7        30.18F FOG     WCI  21
TRACY          CLOUDY    28  27  96 CALM      30.16S FOG
SLAYTON        CLOUDY    27  27 100 CALM      30.15F FOG
$$
MNZ065>067-074>077-082>085-091>093-191200-
   South Central Minnesota

CITY           SKY/WX    TMP DP  RH WIND       PRES   REMARKS
MANKATO        CLOUDY    25  19  80 S8        30.22F WCI  16
NEW ULM        MOCLDY    25  25 100 SE7       30.21S FOG     WCI  17
ST JAMES       CLOUDY    27  25  93 SE6       30.22S WCI  20
FAIRMONT       CLOUDY    27  18  69 S9        30.20F WCI  17
GLENCOE        CLOUDY    24  22  93 E7        30.22S WCI  16
FARIBAULT      CLOUDY    25  19  80 CALM      30.24S
OWATONNA       MOCLDY    25  19  80 SE7       30.23S WCI  17
WASECA         CLOUDY    25  21  86 SE6       30.24F WCI  18
ALBERT LEA     CLOUDY    25  21  86 S6        30.22F WCI  18
$$
MNZ078>079-086>088-094>096-191200-
   Southeast Minnesota

CITY           SKY/WX    TMP DP  RH WIND       PRES   REMARKS
ROCHESTER      CLOUDY    22  18  85 S6        30.24S WCI  14
RED WING       CLOUDY    23  18  80 SE3       30.27S
STANTON        CLOUDY    24  19  81 CALM      30.24S
DODGE CENTER   CLOUDY    23  21  93 S7        30.22F WCI  15
WINONA         CLOUDY    25  19  80 CALM      30.29F
AUSTIN         CLOUDY    23  19  86 S3        30.24S
PRESTON        CLOUDY    22  18  84 SE3       30.24F
$$
ABBREVIATIONS USED IN REMARKS
   TC - TEMPERATURES IN CELSIUS
  WCI - WIND CHILL INDEX
   HX - HEAT INDEX
  VSB - VISIBILITY
$$


USA.gov is the U.S. government's official web portal to all federal, state and local government web resources and services.